#timestamp,LO_Frequency,Hit,StdDev 
1564131615.4,286047001.6,N
1564131635.2,286047001.4,N
1564131655.1,286047003.5,N
1564131656.0,286047003.5,N
1564131675.8,286047001.4,N
1564131695.7,286047002.1,N
1564131715.5,286047000.6,N
1564131735.3,286047001.0,N
1564131755.2,286047000.3,N
1564131775.0,286047000.4,N
1564131775.9,286047000.4,N
1564131795.7,286047000.6,N
1564131815.6,286047000.7,N
1564131835.4,286047000.8,N
1564131855.3,286047001.1,N
1564131875.1,286047002.8,N
1564131876.0,286047002.8,N
1564131895.8,286047002.7,N
1564131915.7,286047002.7,N
1564131935.5,286047002.8,N
1564131955.4,286047002.3,N
1564131975.2,286047001.9,N
1564131995.0,286047002.1,N
1564131995.9,286047002.1,N
1564132015.8,286047001.5,N
1564132035.6,286047004.2,Y
1564132055.5,286047001.9,P
1564132075.3,286047003.9,P
1564132095.1,286047001.9,N
1564132115.9,286047004.3,Y
1564132135.7,286046999.8,P
1564132155.5,286047004.4,P
1564132175.4,286047001.7,N
1564132195.2,286047002.1,N
1564132215.1,286047002.6,N
1564132216.0,286047002.6,N
1564132235.8,286047002.3,N
1564132255.6,286047002.1,N
1564132275.5,286047002.5,N
1564132295.3,286047002.3,N
1564132315.2,286047002.8,N
1564132335.9,286047000.0,N
1564132355.7,286047000.8,N
1564132375.6,286046998.1,N
1564132395.4,286047001.1,N
1564132415.2,286047000.5,N
1564132435.1,286047001.1,N
1564132436.0,286047001.1,N
1564132455.8,286046998.1,N
1564132475.7,286046998.6,N
1564132495.5,286046998.3,N
1564132515.3,286046998.3,N
1564132535.2,286046998.8,N
1564132555.0,286046998.2,N
1564132555.9,286046998.2,N
1564132575.8,286046998.4,N
1564132595.6,286046998.4,N
1564132615.4,286046999.2,N
1564132635.3,286046999.5,N
1564132655.1,286046996.5,N
1564132675.8,286046996.7,N
1564132695.7,286046996.8,N
1564132715.5,286046996.7,N
1564132735.4,286046997.4,N
1564132755.2,286046995.0,N
1564132775.0,286046995.7,N
1564132775.9,286046995.7,N
1564132795.8,286046995.4,N
1564132815.6,286046997.8,N
1564132835.5,286046997.7,N
1564132855.3,286046995.0,N
1564132875.1,286046995.9,N
1564132895.9,286046995.8,N
1564132915.7,286046995.9,N
1564132935.5,286046996.3,N
1564132955.4,286046996.1,N
1564132975.2,286046995.9,N
1564132995.1,286046996.4,N
1564132996.0,286046996.4,N
1564133015.8,286046996.2,N
1564133035.6,286046996.1,Y
1564133055.5,286046999.3,P
1564133075.3,286046999.0,N
1564133095.2,286046999.6,N
1564133115.9,286046998.9,N
1564133135.7,286046999.0,N
1564133155.6,286046999.6,N
1564133175.4,286046999.3,N
1564133195.2,286046998.9,N
1564133215.1,286046998.7,N
1564133216.0,286046998.7,N
1564133235.8,286046998.3,N
1564133255.7,286046999.3,N
1564133275.5,286046999.0,N
1564133295.3,286046999.3,N
1564133315.2,286046998.2,N
1564133335.0,286046998.8,N
1564133335.9,286047011.9,Y
1564133355.8,286047000.0,P
1564133375.6,286047000.2,N
1564133395.4,286047001.0,N
1564133415.3,286046999.5,N
1564133435.1,286046996.5,Y
1564133455.9,286046999.1,P
1564133475.7,286046999.4,N
1564133495.5,286046999.5,N
1564133515.4,286046996.5,Y
1564133535.2,286046999.0,P
1564133555.1,286046996.8,P
1564133556.0,286046996.8,N
1564133575.8,286046998.3,N
1564133595.6,286046998.2,N
1564133615.5,286047000.4,N
1564133635.3,286046999.9,N
1564133655.1,286047000.6,N
1564133675.9,286047000.5,N
1564133695.7,286047001.0,N
1564133715.6,286046998.4,N
1564133735.4,286047000.4,N
1564133755.2,286046998.9,N
1564133775.1,286046999.1,N
1564133776.0,286046999.1,N
1564133795.8,286046998.8,N
1564133815.6,286046998.1,N
1564133835.5,286047000.7,N
1564133855.3,286047000.6,N
1564133875.2,286047001.1,N
1564133895.9,286046998.8,N
1564133915.7,286047000.5,N
1564133935.6,286047002.7,N
1564133955.4,286047000.4,N
1564133975.3,286047000.5,N
1564133995.1,286047001.0,N
1564133996.0,286047001.0,N
1564134015.8,286046998.3,N
1564134035.7,286046998.1,N
1564134055.5,286047000.9,N
1564134075.3,286047000.6,N
1564134095.2,286047000.3,N
1564134115.0,286046999.8,N
1564134115.9,286046999.8,N
1564134135.8,286047002.8,N
1564134155.6,286047000.9,N
1564134175.4,286046998.1,N
1564134195.3,286047000.8,N
1564134215.1,286046999.9,N
1564134235.9,286047001.2,N
1564134255.7,286046998.9,N
1564134275.5,286046999.4,N
1564134295.4,286047001.0,N
1564134315.2,286047000.9,N
1564134335.0,286047000.5,N
1564134335.9,286047000.5,N
1564134355.8,286047000.3,N
1564134375.6,286046999.7,N
1564134395.5,286047001.7,N
1564134415.3,286047003.7,Y
1564134435.1,286047004.3,P
1564134455.9,286047004.3,N
1564134475.7,286047000.2,N
1564134495.6,286047000.0,N
1564134515.4,286047002.6,N
1564134535.2,286046999.7,N
1564134555.1,286047000.1,N
1564134556.0,286047000.1,N
1564134575.8,286047000.0,N
1564134595.6,286046999.9,N
1564134615.5,286047002.1,N
1564134635.3,286047002.8,N
1564134655.2,286047000.2,N
1564134675.9,286047000.2,N
1564134695.7,286047002.8,N
1564134715.6,286047000.7,N
1564134735.4,286047000.5,N
1564134755.3,286047002.1,N
1564134775.1,286047000.3,N
1564134795.9,286047000.3,N
1564134815.7,286047002.7,N
1564134835.5,286047004.0,N
1564134855.4,286047001.3,N
1564134875.2,286047002.6,N
1564134895.0,286047002.5,N
1564134895.9,286047002.5,N
1564134915.8,286047004.2,N
1564134935.6,286047005.6,Y
1564134955.5,286047001.8,P
1564134975.3,286047002.4,P
1564134995.1,286047002.4,P
1564135015.9,286047003.9,Y
1564135035.7,286047001.0,P
1564135055.6,286047000.9,N
1564135075.4,286047000.7,N
1564135095.2,286047000.9,N
1564135115.1,286046999.9,N
1564135116.0,286046999.9,N
1564135135.8,286047002.3,Y
1564135155.7,286047001.1,P
1564135175.5,286047000.8,P
1564135195.3,286047000.9,P
